Weather History for Redding, CA

Change the Weather History Date:

Thursday, October 4, 2012

  Actual Average Record
Temperature  
Mean Temperature 71 °F -  
Max Temperature 86 °F 84 °F 102 °F (1987)
Min Temperature 55 °F 53 °F 41 °F (1989)
Degree Days  
Heating Degree Days 0    
Month to date heating degree days 0  
Cooling Degree Days 6    
Month to date cooling degree days 44  
Year to date cooling degree days 1901  
Growing Degree Days 20 (Base 50)    
Moisture  
Dew Point 47 °F    
Average Humidity 42    
Maximum Humidity 61    
Minimum Humidity 23    
Precipitation  
Precipitation 0.00 in 0.03 in 1.09 in (2011)
Month to date precipitation 0.00 0.12  
Year to date precipitation 17.29 21.89  
Since 1 July precipitation T 1.03  
Sea Level Pressure  
Sea Level Pressure 29.98 in    
Wind  
Wind Speed 2 mph (SSE)    
Max Wind Speed 17 mph    
Max Gust Speed 20 mph    
Visibility 10 miles    
Events      
T = Trace of Precipitation, MM = Missing Value Source: NWS Daily Summary

Daily Weather History Graph

Daily Weather History Graph

Search for Another Location

Airport:

Trip Planner

Search our weather history database for the weather conditions in past years. The results will help you decide how hot, cold, wet, or windy it might be!

Date:

Astronomy

Oct. 04, 2012 Rise Set
Actual Time 7:09 AM PDT 6:45 PM PDT
Civil Twilight 6:42 AM PDT 7:12 PM PDT
Nautical Twilight 6:10 AM PDT 7:44 PM PDT
Astronomical Twilight 5:38 AM PDT 8:15 PM PDT
Moon 9:24 PM PDT (10/4) 11:32 AM PDT (10/4)
Length of Visible Light 12h 30m
Length of Day
11h 36m
Waning Gibbous, 81% of the Moon is Illuminated
Oct 4
Waning Gibbous
Oct 8
Last Quarter
Oct 15
New
Oct 21
First Quarter
Oct 29
Full

Hourly Weather History & Observations

Time (PDT) Temp. Dew Point Humidity Pressure Visibility Wind Dir Wind Speed Gust Speed Precip Events Conditions
12:53 AM 64.9 °F 42.1 °F 43% 29.88 in 10.0 mi Calm Calm - N/A   Clear
1:53 AM 63.0 °F 43.0 °F 48% 29.89 in 10.0 mi Calm Calm - N/A   Clear
2:53 AM 63.0 °F 44.1 °F 50% 29.90 in 10.0 mi Calm Calm - N/A   Clear
3:53 AM 61.0 °F 43.0 °F 52% 29.91 in 10.0 mi Calm Calm - N/A   Clear
4:53 AM 57.9 °F 43.0 °F 58% 29.93 in 10.0 mi Calm Calm - N/A   Clear
5:53 AM 57.0 °F 43.0 °F 59% 29.95 in 10.0 mi Calm Calm - N/A   Clear
6:53 AM 55.0 °F 42.1 °F 62% 29.98 in 10.0 mi Calm Calm - N/A   Clear
7:53 AM 55.9 °F 43.0 °F 62% 30.00 in 10.0 mi East 3.5 mph - N/A   Clear
8:53 AM 64.9 °F 44.1 °F 47% 30.01 in 10.0 mi SE 3.5 mph - N/A   Clear
9:53 AM 69.1 °F 48.0 °F 47% 30.02 in 10.0 mi Calm Calm - N/A   Clear
10:53 AM 73.0 °F 48.0 °F 41% 30.02 in 10.0 mi Calm Calm - N/A   Clear
11:53 AM 75.0 °F 48.0 °F 38% 30.02 in 10.0 mi SSW 4.6 mph - N/A   Clear
12:53 PM 79.0 °F 48.0 °F 34% 30.00 in 10.0 mi Variable 4.6 mph - N/A   Clear
1:53 PM 82.0 °F 48.0 °F 30% 29.99 in 10.0 mi Variable 5.8 mph - N/A   Clear
2:53 PM 84.2 °F 48.2 °F 29% 29.98 in 10.0 mi South 8.1 mph - N/A   Clear
3:53 PM 84.9 °F 42.1 °F 22% 29.95 in 10.0 mi South 11.5 mph - N/A   Clear
4:53 PM 84.0 °F 45.0 °F 25% 29.95 in 10.0 mi South 13.8 mph - N/A   Clear
5:53 PM 80.6 °F 46.4 °F 30% 29.96 in 10.0 mi South 15.0 mph - N/A   Clear
6:53 PM 75.0 °F 51.1 °F 43% 29.97 in 10.0 mi SSE 6.9 mph - N/A   Clear
7:53 PM 73.0 °F 51.1 °F 46% 29.99 in 10.0 mi SE 3.5 mph - N/A   Clear
8:53 PM 70.0 °F 52.0 °F 53% 30.01 in 10.0 mi North 3.5 mph - N/A   Clear
9:53 PM 68.0 °F 53.1 °F 59% 30.02 in 10.0 mi Calm Calm - N/A   Clear
10:53 PM 64.0 °F 52.0 °F 65% 30.04 in 10.0 mi Calm Calm - N/A   Clear
11:53 PM 63.0 °F 51.1 °F 65% 30.05 in 10.0 mi Calm Calm - N/A   Clear